| time (UTC) | temp C | wind direction | speed KPH | gust KPH | rain 1hr cm | rain 24hr cm | rain mn cm | humidity % | barometer mb |
| 20260504130806 | 15 | 0 | 0.0 | 8.0 | 0.00 | 0.00 | 0.00 | 58 | 996.3 |
| 20260504130302 | 15 | 356 | 3.2 | 3.2 | 0.00 | 0.00 | 0.00 | 57 | 996.3 |
| 20260504120225 | 13 | 233 | 4.8 | 9.7 | 0.00 | 0.00 | 0.00 | 54 | 995.2 |
| 20260504110652 | 12 | 264 | 0.0 | 8.0 | 0.00 | 0.00 | 0.00 | 57 | 994.9 |
| 20260504110149 | 12 | 229 | 4.8 | 17.7 | 0.00 | 0.00 | 0.00 | 57 | 994.7 |
| 20260504100615 | 11 | 210 | 14.5 | 14.5 | 0.00 | 0.00 | 0.00 | 59 | 994.4 |
| 20260504100113 | 11 | 203 | 11.3 | 22.5 | 0.00 | 0.00 | 0.00 | 58 | 994.4 |
| 20260504081506 | 10 | 241 | 6.4 | 12.9 | 0.00 | 0.00 | 0.00 | 60 | 996.4 |
| 20260504081001 | 10 | 225 | 8.0 | 9.7 | 0.00 | 0.00 | 0.00 | 59 | 996.7 |
| 20260504080458 | 10 | 219 | 8.0 | 11.3 | 0.00 | 0.00 | 0.00 | 59 | 996.6 |
| 20260504050311 | 11 | 194 | 1.6 | 4.8 | 0.00 | 0.00 | 0.00 | 52 | 999.7 |
| 20260504045809 | 11 | 109 | 0.0 | 1.6 | 0.00 | 0.00 | 0.00 | 51 | 1000.1 |
| 20260504045309 | 11 | 172 | 0.0 | 1.6 | 0.00 | 0.00 | 0.00 | 50 | 999.9 |
| 20260504044806 | 11 | 176 | 0.0 | 3.2 | 0.00 | 0.00 | 0.00 | 51 | 1000.1 |
| 20260504044303 | 11 | 180 | 1.6 | 3.2 | 0.00 | 0.00 | 0.00 | 51 | 1000.2 |
| 20260504043800 | 11 | 196 | 3.2 | 3.2 | 0.00 | 0.00 | 0.00 | 52 | 1000.2 |
| 20260504043258 | 11 | 168 | 0.0 | 1.6 | 0.00 | 0.00 | 0.00 | 50 | 1000.3 |
| 20260504042755 | 11 | 209 | 0.0 | 1.6 | 0.00 | 0.00 | 0.00 | 51 | 1000.5 |
| 20260504042251 | 11 | 200 | 0.0 | 3.2 | 0.00 | 0.00 | 0.00 | 52 | 1000.6 |
| 20260504041747 | 11 | 180 | 0.0 | 1.6 | 0.00 | 0.00 | 0.00 | 50 | 1000.7 |
| 20260504041243 | 11 | 165 | 0.0 | 1.6 | 0.00 | 0.00 | 0.00 | 50 | 1000.6 |
| 20260504040739 | 11 | 172 | 0.0 | 0.0 | 0.00 | 0.00 | 0.00 | 51 | 1000.8 |
| 20260504040238 | 11 | 188 | 0.0 | 0.0 | 0.00 | 0.00 | 0.00 | 50 | 1000.9 |
| 20260504035733 | 11 | 195 | 0.0 | 0.0 | 0.00 | 0.00 | 0.00 | 51 | 1001.0 |
| 20260504035231 | 11 | 195 | 0.0 | 0.0 | 0.00 | 0.00 | 0.00 | 52 | 1001.0 |
| 20260504034728 | 11 | 195 | 0.0 | 1.6 | 0.00 | 0.00 | 0.00 | 53 | 1001.1 |
| 20260504034225 | 11 | 114 | 0.0 | 0.0 | 0.00 | 0.00 | 0.00 | 54 | 1001.0 |
| 20260504033723 | 11 | 127 | 3.2 | 3.2 | 0.00 | 0.00 | 0.00 | 54 | 1001.3 |
| 20260504033220 | 11 | 114 | 0.0 | 1.6 | 0.00 | 0.00 | 0.00 | 53 | 1001.4 |
| 20260504032717 | 11 | 151 | 0.0 | 1.6 | 0.00 | 0.00 | 0.00 | 55 | 1001.5 |
| 20260504032214 | 12 | 165 | 0.0 | 0.0 | 0.00 | 0.00 | 0.00 | 56 | 1001.5 |
| 20260504031711 | 12 | 165 | 0.0 | 0.0 | 0.00 | 0.00 | 0.00 | 55 | 1001.4 |
| 20260504031208 | 12 | 165 | 0.0 | 3.2 | 0.00 | 0.00 | 0.00 | 58 | 1001.6 |
| 20260504030704 | 12 | 111 | 1.6 | 1.6 | 0.00 | 0.00 | 0.00 | 65 | 1001.6 |
| 20260504030201 | 12 | 117 | 0.0 | 0.0 | 0.00 | 0.00 | 0.00 | 56 | 1001.8 |
| 20260504025657 | 12 | 105 | 0.0 | 1.6 | 0.00 | 0.00 | 0.00 | 58 | 1001.9 |
| 20260504025155 | 12 | 140 | 3.2 | 3.2 | 0.00 | 0.00 | 0.00 | 54 | 1001.9 |
| 20260504024652 | 12 | 90 | 0.0 | 0.0 | 0.00 | 0.00 | 0.00 | 51 | 1002.0 |
| 20260504024148 | 12 | 90 | 0.0 | 0.0 | 0.00 | 0.00 | 0.00 | 51 | 1001.8 |
| 20260504023645 | 13 | 90 | 0.0 | 0.0 | 0.00 | 0.00 | 0.00 | 49 | 1001.8 |
| 20260504023141 | 13 | 90 | 0.0 | 0.0 | 0.00 | 0.00 | 0.00 | 49 | 1001.7 |
| 20260504022637 | 13 | 90 | 0.0 | 0.0 | 0.00 | 0.00 | 0.00 | 49 | 1001.9 |
| 20260504022133 | 13 | 90 | 0.0 | 0.0 | 0.00 | 0.00 | 0.00 | 49 | 1001.8 |
| 20260504021631 | 13 | 90 | 0.0 | 0.0 | 0.00 | 0.00 | 0.00 | 48 | 1001.8 |
| 20260504021127 | 13 | 90 | 0.0 | 0.0 | 0.00 | 0.00 | 0.00 | 48 | 1002.1 |
| 20260504020625 | 13 | 90 | 0.0 | 0.0 | 0.00 | 0.00 | 0.00 | 49 | 1001.8 |
| 20260504020121 | 14 | 90 | 0.0 | 0.0 | 0.00 | 0.00 | 0.00 | 50 | 1001.9 |
| 20260504015617 | 14 | 90 | 0.0 | 0.0 | 0.00 | 0.00 | 0.00 | 48 | 1002.0 |
| 20260504015114 | 14 | 90 | 0.0 | 0.0 | 0.00 | 0.00 | 0.00 | 47 | 1002.0 |
| 20260504014610 | 14 | 90 | 0.0 | 0.0 | 0.00 | 0.00 | 0.00 | 46 | 1002.1 |
| 20260504014107 | 15 | 90 | 0.0 | 0.0 | 0.00 | 0.00 | 0.00 | 45 | 1002.1 |
| 20260504013604 | 15 | 90 | 0.0 | 0.0 | 0.00 | 0.00 | 0.00 | 46 | 1002.2 |
| 20260504013101 | 15 | 90 | 0.0 | 0.0 | 0.00 | 0.00 | 0.00 | 43 | 1002.4 |
| 20260504012558 | 15 | 90 | 0.0 | 0.0 | 0.00 | 0.00 | 0.00 | 43 | 1002.2 |
| 20260504012057 | 16 | 90 | 0.0 | 0.0 | 0.00 | 0.00 | 0.00 | 42 | 1002.2 |
| 20260504011553 | 16 | 90 | 0.0 | 0.0 | 0.00 | 0.00 | 0.00 | 42 | 1002.3 |
| 20260504011049 | 16 | 166 | 0.0 | 0.0 | 0.00 | 0.00 | 0.00 | 40 | 1002.1 |
| 20260504010545 | 16 | 154 | 1.6 | 1.6 | 0.00 | 0.00 | 0.00 | 42 | 1002.3 |
| 20260504010041 | 17 | 0 | 0.0 | 0.0 | 0.00 | 0.00 | 0.00 | 39 | 1002.6 |
| 20260504005538 | 17 | 0 | 0.0 | 0.0 | 0.00 | 0.00 | 0.00 | 38 | 1002.4 |
| 20260504005035 | 17 | 97 | 0.0 | 0.0 | 0.00 | 0.00 | 0.00 | 39 | 1002.4 |
| 20260504004533 | 17 | 261 | 0.0 | 1.6 | 0.00 | 0.00 | 0.00 | 38 | 1002.2 |
| 20260504004030 | 18 | 348 | 0.0 | 0.0 | 0.00 | 0.00 | 0.00 | 36 | 1002.6 |
| 20260504003526 | 18 | 348 | 0.0 | 0.0 | 0.00 | 0.00 | 0.00 | 35 | 1002.6 |
| 20260504003023 | 18 | 0 | 0.0 | 1.6 | 0.00 | 0.00 | 0.00 | 34 | 1002.4 |
| 20260504002520 | 18 | 6 | 0.0 | 4.8 | 0.00 | 0.00 | 0.00 | 36 | 1002.6 |
| 20260504002017 | 19 | 0 | 0.0 | 3.2 | 0.00 | 0.00 | 0.00 | 34 | 1002.7 |
| 20260504001515 | 19 | 337 | 0.0 | 1.6 | 0.00 | 0.00 | 0.00 | 34 | 1002.7 |
| 20260504001011 | 19 | 131 | 0.0 | 4.8 | 0.00 | 0.00 | 0.00 | 33 | 1002.6 |
| 20260504000508 | 20 | 175 | 0.0 | 3.2 | 0.00 | 0.00 | 0.00 | 31 | 1002.6 |
| 20260504000006 | 20 | 7 | 1.6 | 3.2 | 0.00 | 0.00 | 0.00 | 31 | 1002.9 |
| 20260503235504 | 20 | 311 | 0.0 | 4.8 | 0.00 | 0.00 | 0.00 | 32 | 1002.7 |
| 20260503235000 | 20 | 334 | 3.2 | 8.0 | 0.00 | 0.00 | 0.00 | 31 | 1003.0 |
| 20260503234458 | 20 | 306 | 1.6 | 6.4 | 0.00 | 0.00 | 0.00 | 30 | 1002.8 |
| 20260503233956 | 20 | 0 | 0.0 | 8.0 | 0.00 | 0.00 | 0.00 | 30 | 1002.8 |
| 20260503233452 | 20 | 308 | 3.2 | 4.8 | 0.00 | 0.00 | 0.00 | 32 | 1003.0 |
| 20260503232948 | 20 | 241 | 4.8 | 4.8 | 0.00 | 0.00 | 0.00 | 31 | 1003.1 |
| 20260503232445 | 20 | 180 | 0.0 | 8.0 | 0.00 | 0.00 | 0.00 | 30 | 1003.0 |
| 20260503231943 | 20 | 210 | 3.2 | 9.7 | 0.00 | 0.00 | 0.00 | 30 | 1003.1 |
| 20260503231440 | 21 | 8 | 3.2 | 4.8 | 0.00 | 0.00 | 0.00 | 31 | 1003.2 |
| 20260503230937 | 21 | 278 | 0.0 | 4.8 | 0.00 | 0.00 | 0.00 | 30 | 1003.2 |
| 20260503230433 | 21 | 354 | 0.0 | 4.8 | 0.00 | 0.00 | 0.00 | 30 | 1003.0 |
| 20260503225931 | 21 | 344 | 3.2 | 4.8 | 0.00 | 0.00 | 0.00 | 29 | 1003.0 |
| 20260503225428 | 21 | 3 | 4.8 | 6.4 | 0.00 | 0.00 | 0.00 | 28 | 1003.3 |
| 20260503224923 | 22 | 308 | 3.2 | 4.8 | 0.00 | 0.00 | 0.00 | 28 | 1003.2 |
| 20260503224420 | 21 | 339 | 3.2 | 6.4 | 0.00 | 0.00 | 0.00 | 28 | 1003.2 |
| 20260503223918 | 22 | 8 | 4.8 | 14.5 | 0.00 | 0.00 | 0.00 | 28 | 1003.2 |
| 20260503223416 | 22 | 285 | 3.2 | 6.4 | 0.00 | 0.00 | 0.00 | 27 | 1003.2 |
| 20260503222916 | 22 | 236 | 0.0 | 4.8 | 0.00 | 0.00 | 0.00 | 28 | 1003.3 |
| 20260503222415 | 22 | 310 | 6.4 | 9.7 | 0.00 | 0.00 | 0.00 | 25 | 1003.3 |
| 20260503221913 | 22 | 340 | 4.8 | 9.7 | 0.00 | 0.00 | 0.00 | 26 | 1003.1 |
| 20260503221411 | 22 | 303 | 0.0 | 9.7 | 0.00 | 0.00 | 0.00 | 27 | 1003.3 |
| 20260503220907 | 22 | 345 | 3.2 | 6.4 | 0.00 | 0.00 | 0.00 | 27 | 1003.3 |
| 20260503220404 | 22 | 349 | 3.2 | 11.3 | 0.00 | 0.00 | 0.00 | 28 | 1003.4 |
| 20260503215901 | 22 | 25 | 4.8 | 6.4 | 0.00 | 0.00 | 0.00 | 27 | 1003.2 |
| 20260503215358 | 22 | 338 | 4.8 | 9.7 | 0.00 | 0.00 | 0.00 | 28 | 1003.3 |
| 20260503214855 | 22 | 352 | 0.0 | 6.4 | 0.00 | 0.00 | 0.00 | 28 | 1003.3 |
| 20260503214353 | 22 | 251 | 4.8 | 8.0 | 0.00 | 0.00 | 0.00 | 31 | 1003.5 |
| 20260503213850 | 22 | 344 | 4.8 | 8.0 | 0.00 | 0.00 | 0.00 | 28 | 1003.4 |
| 20260503213348 | 22 | 336 | 3.2 | 8.0 | 0.00 | 0.00 | 0.00 | 27 | 1003.6 |
| 20260503212844 | 22 | 329 | 4.8 | 11.3 | 0.00 | 0.00 | 0.00 | 26 | 1003.7 |
| 20260503212342 | 22 | 307 | 4.8 | 8.0 | 0.00 | 0.00 | 0.00 | 27 | 1003.7 |
| 20260503211839 | 22 | 303 | 3.2 | 14.5 | 0.00 | 0.00 | 0.00 | 29 | 1003.7 |
| 20260503211336 | 22 | 343 | 6.4 | 9.7 | 0.00 | 0.00 | 0.00 | 27 | 1003.7 |
| 20260503210831 | 22 | 324 | 4.8 | 8.0 | 0.00 | 0.00 | 0.00 | 29 | 1003.6 |
| 20260503210329 | 23 | 263 | 0.0 | 4.8 | 0.00 | 0.00 | 0.00 | 34 | 1004.0 |
| 20260503205823 | 22 | 343 | 0.0 | 6.4 | 0.00 | 0.00 | 0.00 | 29 | 1003.9 |
| 20260503205320 | 22 | 174 | 1.6 | 6.4 | 0.00 | 0.00 | 0.00 | 31 | 1003.9 |
| 20260503204817 | 22 | 324 | 3.2 | 9.7 | 0.00 | 0.00 | 0.00 | 30 | 1003.8 |
| 20260503204314 | 22 | 277 | 4.8 | 8.0 | 0.00 | 0.00 | 0.00 | 30 | 1004.1 |
| 20260503203811 | 22 | 334 | 8.0 | 9.7 | 0.00 | 0.00 | 0.00 | 29 | 1004.1 |
| 20260503203309 | 22 | 357 | 3.2 | 9.7 | 0.00 | 0.00 | 0.00 | 29 | 1003.9 |
| 20260503202806 | 22 | 275 | 3.2 | 9.7 | 0.00 | 0.00 | 0.00 | 31 | 1004.2 |
| 20260503202304 | 21 | 270 | 1.6 | 8.0 | 0.00 | 0.00 | 0.00 | 32 | 1004.3 |
| 20260503201801 | 21 | 0 | 3.2 | 14.5 | 0.00 | 0.00 | 0.00 | 31 | 1004.2 |
| 20260503201258 | 21 | 117 | 1.6 | 8.0 | 0.00 | 0.00 | 0.00 | 30 | 1004.4 |
| 20260503200756 | 21 | 338 | 8.0 | 14.5 | 0.00 | 0.00 | 0.00 | 32 | 1004.4 |
| 20260503200251 | 21 | 315 | 4.8 | 9.7 | 0.00 | 0.00 | 0.00 | 32 | 1004.4 |
| 20260503195749 | 21 | 170 | 4.8 | 8.0 | 0.00 | 0.00 | 0.00 | 33 | 1004.6 |
| 20260503195245 | 21 | 296 | 0.0 | 9.7 | 0.00 | 0.00 | 0.00 | 32 | 1004.7 |
| 20260503194743 | 21 | 0 | 4.8 | 14.5 | 0.00 | 0.00 | 0.00 | 33 | 1004.7 |
| 20260503194238 | 21 | 351 | 6.4 | 6.4 | 0.00 | 0.00 | 0.00 | 35 | 1004.9 |
| 20260503193735 | 21 | 348 | 11.3 | 17.7 | 0.00 | 0.00 | 0.00 | 32 | 1005.0 |
| 20260503193231 | 21 | 334 | 4.8 | 17.7 | 0.00 | 0.00 | 0.00 | 33 | 1004.6 |
| 20260503192727 | 21 | 0 | 4.8 | 11.3 | 0.00 | 0.00 | 0.00 | 34 | 1004.8 |
| 20260503192222 | 21 | 354 | 4.8 | 6.4 | 0.00 | 0.00 | 0.00 | 34 | 1004.9 |
| 20260503191719 | 21 | 336 | 6.4 | 11.3 | 0.00 | 0.00 | 0.00 | 33 | 1004.8 |
| 20260503191216 | 21 | 308 | 3.2 | 4.8 | 0.00 | 0.00 | 0.00 | 32 | 1004.8 |
| 20260503190713 | 21 | 330 | 8.0 | 14.5 | 0.00 | 0.00 | 0.00 | 32 | 1005.0 |
| 20260503190210 | 21 | 307 | 3.2 | 12.9 | 0.00 | 0.00 | 0.00 | 33 | 1004.8 |
| 20260503185707 | 20 | 312 | 3.2 | 17.7 | 0.00 | 0.00 | 0.00 | 33 | 1004.8 |
| 20260503185202 | 21 | 332 | 4.8 | 8.0 | 0.00 | 0.00 | 0.00 | 34 | 1005.0 |
| 20260503184657 | 21 | 351 | 9.7 | 11.3 | 0.00 | 0.00 | 0.00 | 33 | 1004.9 |
| 20260503184154 | 21 | 10 | 3.2 | 9.7 | 0.00 | 0.00 | 0.00 | 39 | 1005.3 |
| 20260503183650 | 21 | 4 | 3.2 | 14.5 | 0.00 | 0.00 | 0.00 | 35 | 1005.0 |
| 20260503183148 | 21 | 345 | 4.8 | 8.0 | 0.00 | 0.00 | 0.00 | 34 | 1005.0 |
| 20260503182646 | 21 | 12 | 1.6 | 8.0 | 0.00 | 0.00 | 0.00 | 36 | 1005.2 |
| 20260503182144 | 21 | 330 | 3.2 | 8.0 | 0.00 | 0.00 | 0.00 | 36 | 1005.3 |
| 20260503181640 | 20 | 292 | 3.2 | 12.9 | 0.00 | 0.00 | 0.00 | 36 | 1005.0 |
| 20260503181137 | 20 | 3 | 6.4 | 14.5 | 0.00 | 0.00 | 0.00 | 35 | 1005.2 |
| 20260503180634 | 20 | 357 | 8.0 | 9.7 | 0.00 | 0.00 | 0.00 | 36 | 1005.3 |
| 20260503180132 | 20 | 8 | 6.4 | 14.5 | 0.00 | 0.00 | 0.00 | 36 | 1005.2 |
| 20260503175629 | 20 | 311 | 4.8 | 12.9 | 0.00 | 0.00 | 0.00 | 35 | 1005.6 |
| 20260503175126 | 20 | 307 | 4.8 | 11.3 | 0.00 | 0.00 | 0.00 | 36 | 1005.6 |
| 20260503174622 | 20 | 3 | 4.8 | 8.0 | 0.00 | 0.00 | 0.00 | 35 | 1005.5 |
| 20260503174120 | 20 | 332 | 3.2 | 8.0 | 0.00 | 0.00 | 0.00 | 37 | 1005.7 |
| 20260503173614 | 20 | 289 | 0.0 | 12.9 | 0.00 | 0.00 | 0.00 | 38 | 1005.5 |
| 20260503173111 | 19 | 340 | 8.0 | 9.7 | 0.00 | 0.00 | 0.00 | 38 | 1005.5 |
| 20260503172608 | 20 | 298 | 6.4 | 8.0 | 0.00 | 0.00 | 0.00 | 40 | 1005.4 |
| 20260503172106 | 20 | 295 | 0.0 | 8.0 | 0.00 | 0.00 | 0.00 | 39 | 1005.5 |
| 20260503171602 | 20 | 252 | 6.4 | 9.7 | 0.00 | 0.00 | 0.00 | 39 | 1005.7 |
| 20260503171059 | 20 | 357 | 0.0 | 8.0 | 0.00 | 0.00 | 0.00 | 38 | 1005.4 |
| 20260503170555 | 19 | 347 | 4.8 | 11.3 | 0.00 | 0.00 | 0.00 | 39 | 1005.5 |
| 20260503150948 | 17 | 5 | 1.6 | 12.9 | 0.00 | 0.00 | 0.00 | 49 | 1005.3 |
| 20260503150445 | 16 | 32 | 6.4 | 12.9 | 0.00 | 0.00 | 0.00 | 49 | 1005.3 |